Regional Weather Roundup
Issued by NWS

Home | Current Version | Previous Version | Graphics & Text | Print | Product List | Glossary Off
Versions: 1 2 3 4 5 6 7 8 9 10 11 12 13 14 15 16 17 18 19 20 21 22 23 24 25 26 27 28 29 30 31 32 33 34 35 36 37 38 39 40 41 42 43 44 45 46 47 48 49 50

000
ASUS43 KMKX 020600
RWRWI

WISCONSIN REGIONAL WEATHER ROUNDUP
NATIONAL WEATHER SERVICE MILWAUKEE/SULLIVAN WI
100 AM CDT SUN AUG 02 2015

NOTE: "FAIR" INDICATES FEW OR NO CLOUDS BELOW 12,000 FEET WITH NO
SIGNIFICANT WEATHER AND/OR OBSTRUCTIONS TO VISIBILITY.

WIZ001-002-006>008-014>016-023>028-020700-
NORTHWEST WISCONSIN

CITY           SKY/WX    TMP DP  RH WIND       PRES   REMARKS
SUPERIOR ARPT  CLEAR     61  58  91 SW5       29.68F
ASHLAND        CLEAR     62  57  83 SW7       29.70F
6HR MIN TEMP:  59; 6HR MAX TEMP:  78;

HAYWARD        PTCLDY    67  59  75 SW5       29.74F
6HR MIN TEMP:  64; 6HR MAX TEMP:  78;

SIREN          CLEAR     69  62  80 S3        29.73F
CUMBERLAND     PTCLDY    64  61  88 SW5       29.76F
RICE LAKE      PTCLDY    67  62  83 SE5       29.78S
CHETEK         PTCLDY    65  63  92 CALM      29.77S
LADYSMITH      MOCLDY    69  62  77 S5        29.79F
EAU CLAIRE     PTCLDY    69  66  90 S7        29.77F
6HR MIN TEMP:  66; 6HR MAX TEMP:  81; 6HR PCP:  0.01;

MENOMONIE      PTCLDY    68  65  89 S3        29.78F
NEW RICHMOND   PTCLDY    72  67  86 SW8       29.77F
OSCEOLA        PTCLDY    69  69 100 S5        29.78F
$$

WIZ003>005-009-010-017-018-020700-
NORTH CENTRAL WISCONSIN

CITY           SKY/WX    TMP DP  RH WIND       PRES   REMARKS
MANITOWISH WTR CLEAR     60  56  87 CALM      29.77F
ARBOR VITAE    PTCLDY    61  56  83 S3        29.79F
WOODRUFF       PTCLDY    61  56  83 S3        29.79F
RHINELANDER    PTCLDY    64  56  75 SW5       29.79F
6HR MIN TEMP:  60; 6HR MAX TEMP:  76;

EAGLE RIVER    PTCLDY    60  53  77 SW3       29.79S
LAND O LAKES   CLEAR     54  53  96 CALM      29.79F
PHILLIPS       CLEAR     65  59  82 S5        29.77F
TOMAHAWK       PTCLDY    63  57  80 S3        29.79F
MEDFORD        MOCLDY    64  61  87 S8        29.80F
MERRILL        NOT AVBL
$$

WIZ029-030-035-036-043>047-020700-
CENTRAL WISCONSIN

CITY           SKY/WX    TMP DP  RH WIND       PRES   REMARKS
WAUSAU         PTCLDY    68  59  73 SW6       29.79F
6HR MIN TEMP:  67; 6HR MAX TEMP:  79;

MOSINEE        CLEAR     63  59  88 S6        29.82F
MARSHFIELD     LGT RAIN  65  59  81 SW3       29.81F
6HR MIN TEMP:  63; 6HR MAX TEMP:  78; 6HR PCP: TRACE;

STEVENS POINT  CLEAR     64  57  78 S5        29.82F
WAUPACA        PTCLDY    65  58  80 S3        29.82F
WAUTOMA        NOT AVBL
WISC RAPIDS    CLEAR     67  60  78 SW6       29.81F
6HR MIN TEMP:  64; 6HR MAX TEMP:  80; 6HR PCP: TRACE;

CAMP DOUGLAS   NOT AVBL
$$

WIZ011>013-019>022-031-037>040-048>050-020700-
NORTHEAST WISCONSIN

CITY           SKY/WX    TMP DP  RH WIND       PRES   REMARKS
ANTIGO         PTCLDY    63  56  80 SW7       29.82F
SHAWANO        CLEAR     67  56  66 CALM      29.80F
OCONTO         CLEAR     59  55  87 CALM      29.79S
STURGEON BAY   CLEAR     64  52  63 SW7       29.81F
6HR MIN TEMP:  64; 6HR MAX TEMP:  79;

GREEN BAY      CLEAR     66  56  70 SW5       29.80F
6HR MIN TEMP:  62; 6HR MAX TEMP:  79;

MANITOWOC      NOT AVBL
APPLETON       PTCLDY    68  54  60 SW8       29.82S
CLINTONVILLE   PTCLDY    63  54  72 CALM      29.81S
OSHKOSH        PTCLDY    71  58  63 SW3       29.82S
6HR MIN TEMP:  63; 6HR MAX TEMP:  81;

$$

WIZ032>034-041-042-053>061-020700-
SOUTHWEST WISCONSIN

CITY           SKY/WX    TMP DP  RH WIND       PRES   REMARKS
LA CROSSE      PTCLDY    76  68  76 S12       29.79F
6HR MIN TEMP:  76; 6HR MAX TEMP:  85;

SPARTA         PTCLDY    73  64  73 SW5       29.82F
VIROQUA        PTCLDY    72  69  91 SW8       29.86F
BOSCOBEL       PTCLDY    72  68  87 SW3       29.85F
6HR MIN TEMP:  67; 6HR MAX TEMP:  86;

PRAIRIE DU CHI PTCLDY    74  67  78 CALM      29.86S
PLATTEVILLE    CLEAR     70  69  95 S6        29.88F
$$

WIZ056-057-062-063-064-067-068-020700-
SOUTH CENTRAL WISCONSIN

CITY           SKY/WX    TMP DP  RH WIND       PRES   REMARKS
REEDSBURG      MOCLDY    73  66  79 SW8       29.84F
BARABOO/DELLS  MOCLDY    73  63  69 SW7       29.85F
LONE ROCK      NOT AVBL
MINERAL POINT  PTCLDY    72  68  88 SW7       29.89S
MADISON        PTCLDY    75  67  76 VRB6      29.85F
6HR MIN TEMP:  70; 6HR MAX TEMP:  83;

MIDDLETON      PTCLDY    74  67  76 SW9       29.87S
WATERTOWN      MOCLDY    68  67  97 SW3       29.86S
MONROE         PTCLDY    72  66  83 SW14      29.89F
JANESVILLE     PTCLDY    72  68  88 W8        29.88R
$$

WIZ051-052-058>065-066-070>072-020700-
SOUTHEAST WISCONSIN

CITY           SKY/WX    TMP DP  RH WIND       PRES   REMARKS
MILWAUKEE      MOCLDY    73  64  73 SW12      29.86R
6HR MIN TEMP:  69; 6HR MAX TEMP:  83;

WAUKESHA       PTCLDY    68  59  73 SW5       29.87S
MILWAUKEE/TIMM CLEAR     68  59  73 SW5       29.86S
RACINE         CLEAR     72  65  78 SW7       29.87S
6HR MIN TEMP:  69; 6HR MAX TEMP:  77;

BURLINGTON     CLEAR     63  62  95 CALM      29.88R
KENOSHA        CLEAR     69  65  86 W8        29.87S
6HR MIN TEMP:  66; 6HR MAX TEMP:  79;

FOND DU LAC    PTCLDY    67  60  78 SW5       29.83F
6HR MIN TEMP:  67; 6HR MAX TEMP:  82;

SHEBOYGAN      CLEAR     61  58  90 SW5       29.82F
6HR MIN TEMP:  61; 6HR MAX TEMP:  80; 6HR PCP: TRACE;

WEST BEND      PTCLDY    63  59  88 CALM      29.85S
JUNEAU         MOCLDY    66  60  81 S3        29.87S
$$

LSZ147-162-020700-
LAKE SUPERIOR

STATION/POSITION TIME  TEMP    WIND        PRES    WAVE
                       AIR SEA DIR/SP/G            HT/PER
                 (UTC) (F)     (DEG/KT/KT) (MB)    (FT/S)
W MID LAKE BUOY  0450   61 56  230/  8/  8 1005.2F   1
DEVILS ISLAND    0500   68     240/  9/ 10 1005.5F
PORT WING        0500   68     200/  1/  5 1006.1
SAXON HARBOR     0540   67                 1005.4F
$$

LMZ867-665-643>646-020700-
LAKE MICHIGAN

STATION/POSITION TIME  TEMP    WIND        PRES    WAVE
                       AIR SEA DIR/SP/G            HT/PER
                 (UTC) (F)     (DEG/KT/KT) (MB)    (FT/S)
CHAMBERS ISLAND  0500   71     200/  5/  8 1008.5S
S GREEN BAY BUOY 0500   70 69  220/  8/ 10 1010.4
N MID LAKE BUOY  0450   70 69  220/ 12/ 14 1007.8F   2/ 4
NORTHPORT PIER   0500   67     190/  1/ 21 1008.5S
SISTER BAY       0444   73     230/  8/  9   N/A
ALGOMA LAKESHORE 0512             CALM       N/A
KEWAUNEE LAKESHO 0500   66      CALM  /  2 1008.8F
SHEBOYGAN LAKESH 0500   68     200/  4/  5 1010.1F
PORT WASHINGTON  0540   63     240/  3/  4 1011.2S
ATWATER BUOY     0500   68 63  180/  6/  8 1012.0F
MILWAUKEE LAKESH 0500   72     230/  6/  7   N/A
KENOSHA   LAKESH 0500   75     250/  9/ 13 1010.8F
$$

TC  - TEMPERATURE IN CELSIUS
VSB - VISIBILITY IN STATUTE MILES
WCI - WIND CHILL INDEX
HX  - HEAT INDEX




USA.gov is the U.S. government's official web portal to all federal, state and local government web resources and services.